Wetterdaten: Dienstag, 20.07.2010
Datum Zeit Temp. A. Feuchte A. Luftdruck Regen Wind Richtung Richtung Sonnenschein UV Solar Windben
20.07.2010 00:00 19,4 C 56 % 1018,7 hPa 0,0 mm 0,0 km/h (0 Bft) O 90 0 min 0 UV-I 0 W/m 1,6 km/h (1 Bft)
20.07.2010 00:10 19,2 C 57 % 1018,6 hPa 0,0 mm 0,0 km/h (0 Bft) O 90 0 min 0 UV-I 0 W/m 1,6 km/h (1 Bft)
20.07.2010 00:20 19,0 C 58 % 1018,7 hPa 0,0 mm 0,0 km/h (0 Bft) N 0 0 min 0 UV-I 0 W/m 0,0 km/h (0 Bft)
20.07.2010 00:30 18,7 C 59 % 1018,7 hPa 0,0 mm 0,0 km/h (0 Bft) N 0 0 min 0 UV-I 0 W/m 0,0 km/h (0 Bft)
20.07.2010 00:40 18,3 C 60 % 1018,7 hPa 0,0 mm 0,0 km/h (0 Bft) N 0 0 min 0 UV-I 0 W/m 0,0 km/h (0 Bft)
20.07.2010 00:50 18,2 C 61 % 1018,7 hPa 0,0 mm 0,0 km/h (0 Bft) O 90 0 min 0 UV-I 0 W/m 1,6 km/h (1 Bft)
20.07.2010 01:00 17,9 C 63 % 1018,7 hPa 0,0 mm 0,0 km/h (0 Bft) O 90 0 min 0 UV-I 0 W/m 1,6 km/h (1 Bft)
20.07.2010 01:10 17,8 C 63 % 1018,6 hPa 0,0 mm 0,0 km/h (0 Bft) O 90 0 min 0 UV-I 0 W/m 1,6 km/h (1 Bft)
20.07.2010 01:20 17,7 C 63 % 1018,5 hPa 0,0 mm 0,0 km/h (0 Bft) O 90 0 min 0 UV-I 0 W/m 4,8 km/h (1 Bft)
20.07.2010 01:30 17,8 C 62 % 1018,6 hPa 0,0 mm 0,0 km/h (0 Bft) O 90 0 min 0 UV-I 0 W/m 6,4 km/h (2 Bft)
20.07.2010 01:40 17,9 C 61 % 1018,6 hPa 0,0 mm 0,0 km/h (0 Bft) O 90 0 min 0 UV-I 0 W/m 3,2 km/h (1 Bft)
20.07.2010 01:50 17,8 C 61 % 1018,5 hPa 0,0 mm 0,0 km/h (0 Bft) O 90 0 min 0 UV-I 0 W/m 1,6 km/h (1 Bft)
20.07.2010 02:00 17,7 C 61 % 1018,4 hPa 0,0 mm 0,0 km/h (0 Bft) O 90 0 min 0 UV-I 0 W/m 3,2 km/h (1 Bft)
20.07.2010 02:10 17,8 C 61 % 1018,4 hPa 0,0 mm 0,0 km/h (0 Bft) O 90 0 min 0 UV-I 0 W/m 3,2 km/h (1 Bft)
20.07.2010 02:20 17,8 C 61 % 1018,3 hPa 0,0 mm 0,0 km/h (0 Bft) O 90 0 min 0 UV-I 0 W/m 4,8 km/h (1 Bft)
20.07.2010 02:30 17,9 C 61 % 1018,3 hPa 0,0 mm 1,6 km/h (1 Bft) O 90 0 min 0 UV-I 0 W/m 4,8 km/h (1 Bft)
20.07.2010 02:40 17,8 C 61 % 1018,2 hPa 0,0 mm 1,6 km/h (1 Bft) O 90 0 min 0 UV-I 0 W/m 6,4 km/h (2 Bft)
20.07.2010 02:50 18,0 C 60 % 1018,1 hPa 0,0 mm 1,6 km/h (1 Bft) O 90 0 min 0 UV-I 0 W/m 8,0 km/h (2 Bft)
20.07.2010 03:00 18,0 C 60 % 1018,1 hPa 0,0 mm 1,6 km/h (1 Bft) O 90 0 min 0 UV-I 0 W/m 6,4 km/h (2 Bft)
20.07.2010 03:10 17,9 C 61 % 1017,9 hPa 0,0 mm 1,6 km/h (1 Bft) O 90 0 min 0 UV-I 0 W/m 6,4 km/h (2 Bft)
20.07.2010 03:20 17,8 C 61 % 1017,8 hPa 0,0 mm 1,6 km/h (1 Bft) O 90 0 min 0 UV-I 0 W/m 6,4 km/h (2 Bft)
20.07.2010 03:30 17,7 C 61 % 1017,7 hPa 0,0 mm 1,6 km/h (1 Bft) O 90 0 min 0 UV-I 0 W/m 4,8 km/h (1 Bft)
20.07.2010 03:40 17,6 C 62 % 1017,7 hPa 0,0 mm 1,6 km/h (1 Bft) O 90 0 min 0 UV-I 0 W/m 4,8 km/h (1 Bft)
20.07.2010 03:50 17,4 C 62 % 1017,6 hPa 0,0 mm 1,6 km/h (1 Bft) O 90 0 min 0 UV-I 0 W/m 4,8 km/h (1 Bft)
20.07.2010 04:00 17,4 C 61 % 1017,6 hPa 0,0 mm 1,6 km/h (1 Bft) O 90 0 min 0 UV-I 0 W/m 6,4 km/h (2 Bft)
20.07.2010 04:10 17,4 C 61 % 1017,5 hPa 0,0 mm 1,6 km/h (1 Bft) O 90 0 min 0 UV-I 0 W/m 6,4 km/h (2 Bft)
20.07.2010 04:20 17,4 C 61 % 1017,6 hPa 0,0 mm 1,6 km/h (1 Bft) O 90 0 min 0 UV-I 0 W/m 6,4 km/h (2 Bft)
20.07.2010 04:30 17,3 C 62 % 1017,4 hPa 0,0 mm 1,6 km/h (1 Bft) O 90 0 min 0 UV-I 0 W/m 6,4 km/h (2 Bft)
20.07.2010 04:40 17,3 C 61 % 1017,3 hPa 0,0 mm 1,6 km/h (1 Bft) O 90 0 min 0 UV-I 0 W/m 4,8 km/h (1 Bft)
20.07.2010 04:50 17,3 C 61 % 1017,3 hPa 0,0 mm 1,6 km/h (1 Bft) O 90 0 min 0 UV-I 0 W/m 8,0 km/h (2 Bft)
20.07.2010 05:00 17,3 C 61 % 1017,3 hPa 0,0 mm 3,2 km/h (1 Bft) O 90 0 min 0 UV-I 0 W/m 6,4 km/h (2 Bft)
20.07.2010 05:10 17,4 C 61 % 1017,5 hPa 0,0 mm 3,2 km/h (1 Bft) O 90 0 min 0 UV-I 0 W/m 8,0 km/h (2 Bft)
20.07.2010 05:20 17,3 C 61 % 1017,3 hPa 0,0 mm 3,2 km/h (1 Bft) O 90 0 min 0 UV-I 0 W/m 8,0 km/h (2 Bft)
20.07.2010 05:30 17,2 C 62 % 1017,2 hPa 0,0 mm 3,2 km/h (1 Bft) O-SO 112 0 min 0 UV-I 0 W/m 8,0 km/h (2 Bft)
20.07.2010 05:40 17,1 C 62 % 1017,3 hPa 0,0 mm 3,2 km/h (1 Bft) O-SO 112 0 min 0 UV-I 7 W/m 6,4 km/h (2 Bft)
20.07.2010 05:50 17,0 C 63 % 1017,3 hPa 0,0 mm 3,2 km/h (1 Bft) O-SO 112 0 min 0 UV-I 11 W/m 8,0 km/h (2 Bft)
20.07.2010 06:00 16,9 C 63 % 1017,3 hPa 0,0 mm 1,6 km/h (1 Bft) O-SO 112 0 min 0 UV-I 12 W/m 6,4 km/h (2 Bft)
20.07.2010 06:10 16,8 C 64 % 1017,2 hPa 0,0 mm 1,6 km/h (1 Bft) O-SO 112 0 min 0 UV-I 16 W/m 6,4 km/h (2 Bft)
20.07.2010 06:20 16,9 C 64 % 1017,3 hPa 0,0 mm 1,6 km/h (1 Bft) O-SO 112 0 min 0 UV-I 19 W/m 8,0 km/h (2 Bft)
20.07.2010 06:30 16,9 C 64 % 1017,3 hPa 0,0 mm 1,6 km/h (1 Bft) O 90 0 min 0 UV-I 42 W/m 6,4 km/h (2 Bft)
20.07.2010 06:40 17,1 C 64 % 1017,2 hPa 0,0 mm 1,6 km/h (1 Bft) O 90 0 min 0 UV-I 47 W/m 6,4 km/h (2 Bft)
20.07.2010 06:50 17,3 C 64 % 1017,2 hPa 0,0 mm 1,6 km/h (1 Bft) O 90 0 min 0 UV-I 70 W/m 6,4 km/h (2 Bft)
20.07.2010 07:00 17,6 C 64 % 1017,2 hPa 0,0 mm 1,6 km/h (1 Bft) O 90 0 min 1 UV-I 105 W/m 6,4 km/h (2 Bft)
20.07.2010 07:10 17,9 C 63 % 1017,1 hPa 0,0 mm 1,6 km/h (1 Bft) O 90 0 min 1 UV-I 118 W/m 8,0 km/h (2 Bft)
20.07.2010 07:20 18,2 C 63 % 1017,1 hPa 0,0 mm 1,6 km/h (1 Bft) O 90 10 min 1 UV-I 141 W/m 6,4 km/h (2 Bft)
20.07.2010 07:30 18,7 C 61 % 1017,1 hPa 0,0 mm 3,2 km/h (1 Bft) O-SO 112 10 min 1 UV-I 209 W/m 9,7 km/h (2 Bft)
20.07.2010 07:40 19,3 C 60 % 1017,0 hPa 0,0 mm 4,8 km/h (1 Bft) O-SO 112 10 min 1 UV-I 236 W/m 11,3 km/h (2 Bft)
20.07.2010 07:50 20,0 C 58 % 1017,0 hPa 0,0 mm 3,2 km/h (1 Bft) O-SO 112 10 min 1 UV-I 257 W/m 9,7 km/h (2 Bft)
20.07.2010 08:00 20,6 C 57 % 1016,9 hPa 0,0 mm 3,8 km/h (1 Bft) O-SO 107 10 min 1 UV-I 226 W/m 9,7 km/h (2 Bft)
20.07.2010 08:10 21,2 C 55 % 1016,9 hPa 0,0 mm 1,6 km/h (1 Bft) O-SO 112 10 min 1 UV-I 320 W/m 9,7 km/h (2 Bft)
20.07.2010 08:20 21,8 C 52 % 1016,8 hPa 0,0 mm 3,2 km/h (1 Bft) O-SO 112 10 min 2 UV-I 359 W/m 8,0 km/h (2 Bft)
20.07.2010 08:30 22,3 C 50 % 1016,8 hPa 0,0 mm 3,2 km/h (1 Bft) O-SO 112 10 min 2 UV-I 369 W/m 11,3 km/h (2 Bft)
20.07.2010 08:40 22,6 C 50 % 1016,9 hPa 0,0 mm 4,8 km/h (1 Bft) O-SO 112 10 min 2 UV-I 371 W/m 11,3 km/h (2 Bft)
20.07.2010 08:50 22,7 C 50 % 1016,8 hPa 0,0 mm 4,8 km/h (1 Bft) O-SO 112 10 min 2 UV-I 364 W/m 14,5 km/h (3 Bft)
20.07.2010 09:00 23,0 C 49 % 1016,8 hPa 0,0 mm 3,2 km/h (1 Bft) O-SO 112 10 min 2 UV-I 359 W/m 12,9 km/h (3 Bft)
20.07.2010 09:10 23,4 C 50 % 1016,8 hPa 0,0 mm 3,2 km/h (1 Bft) O-SO 112 10 min 2 UV-I 431 W/m 9,7 km/h (2 Bft)
20.07.2010 09:20 23,9 C 48 % 1016,7 hPa 0,0 mm 3,2 km/h (1 Bft) O-SO 112 10 min 3 UV-I 499 W/m 9,7 km/h (2 Bft)
20.07.2010 09:30 24,4 C 48 % 1016,7 hPa 0,0 mm 3,2 km/h (1 Bft) O-SO 112 10 min 3 UV-I 522 W/m 8,0 km/h (2 Bft)
20.07.2010 09:40 24,7 C 48 % 1016,5 hPa 0,0 mm 1,6 km/h (1 Bft) O 90 10 min 3 UV-I 533 W/m 8,0 km/h (2 Bft)
20.07.2010 09:50 25,0 C 47 % 1016,5 hPa 0,0 mm 1,6 km/h (1 Bft) O-SO 112 10 min 4 UV-I 566 W/m 9,7 km/h (2 Bft)
20.07.2010 10:00 25,4 C 45 % 1016,4 hPa 0,0 mm 1,6 km/h (1 Bft) SO 135 10 min 4 UV-I 589 W/m 8,0 km/h (2 Bft)
20.07.2010 10:10 25,8 C 43 % 1016,4 hPa 0,0 mm 1,6 km/h (1 Bft) SO 135 10 min 4 UV-I 652 W/m 8,0 km/h (2 Bft)
20.07.2010 10:20 26,1 C 41 % 1016,3 hPa 0,0 mm 3,2 km/h (1 Bft) O-SO 112 10 min 4 UV-I 647 W/m 9,7 km/h (2 Bft)
20.07.2010 10:30 26,3 C 42 % 1016,2 hPa 0,0 mm 3,2 km/h (1 Bft) SO 135 10 min 5 UV-I 668 W/m 9,7 km/h (2 Bft)
20.07.2010 10:40 26,6 C 44 % 1016,1 hPa 0,0 mm 1,6 km/h (1 Bft) O-SO 112 10 min 5 UV-I 638 W/m 8,0 km/h (2 Bft)
20.07.2010 10:50 27,2 C 42 % 1016,1 hPa 0,0 mm 4,8 km/h (1 Bft) O 90 10 min 5 UV-I 729 W/m 16,1 km/h (3 Bft)
20.07.2010 11:00 27,6 C 40 % 1016,0 hPa 0,0 mm 4,8 km/h (1 Bft) O 90 10 min 6 UV-I 758 W/m 16,1 km/h (3 Bft)
20.07.2010 11:10 27,4 C 40 % 1015,9 hPa 0,0 mm 3,2 km/h (1 Bft) O-SO 112 10 min 6 UV-I 758 W/m 16,1 km/h (3 Bft)
20.07.2010 11:20 27,8 C 41 % 1015,8 hPa 0,0 mm 4,8 km/h (1 Bft) O-SO 112 10 min 6 UV-I 773 W/m 11,3 km/h (2 Bft)
20.07.2010 11:30 28,2 C 38 % 1015,7 hPa 0,0 mm 4,8 km/h (1 Bft) O-SO 112 10 min 6 UV-I 796 W/m 14,5 km/h (3 Bft)
20.07.2010 11:40 28,3 C 37 % 1015,6 hPa 0,0 mm 6,4 km/h (2 Bft) O-SO 112 10 min 7 UV-I 816 W/m 16,1 km/h (3 Bft)
20.07.2010 11:50 27,7 C 37 % 1015,6 hPa 0,0 mm 3,2 km/h (1 Bft) O-SO 112 10 min 7 UV-I 831 W/m 11,3 km/h (2 Bft)
20.07.2010 12:00 28,8 C 38 % 1015,6 hPa 0,0 mm 3,2 km/h (1 Bft) O 90 10 min 7 UV-I 838 W/m 11,3 km/h (2 Bft)
20.07.2010 12:10 28,8 C 37 % 1015,4 hPa 0,0 mm 4,8 km/h (1 Bft) O 90 10 min 7 UV-I 844 W/m 11,3 km/h (2 Bft)
20.07.2010 12:20 28,4 C 37 % 1015,2 hPa 0,0 mm 3,2 km/h (1 Bft) SO 135 10 min 7 UV-I 830 W/m 11,3 km/h (2 Bft)
20.07.2010 12:30 29,0 C 39 % 1015,0 hPa 0,0 mm 3,2 km/h (1 Bft) O-NO 67 10 min 8 UV-I 861 W/m 9,7 km/h (2 Bft)
20.07.2010 12:40 29,3 C 38 % 1014,9 hPa 0,0 mm 3,2 km/h (1 Bft) O-SO 112 10 min 8 UV-I 870 W/m 12,9 km/h (3 Bft)
20.07.2010 12:50 29,3 C 38 % 1014,9 hPa 0,0 mm 6,4 km/h (2 Bft) O 90 10 min 8 UV-I 877 W/m 17,7 km/h (3 Bft)
20.07.2010 13:00 29,6 C 37 % 1014,8 hPa 0,0 mm 6,4 km/h (2 Bft) O-SO 112 10 min 8 UV-I 888 W/m 17,7 km/h (3 Bft)
20.07.2010 13:10 29,7 C 38 % 1014,5 hPa 0,0 mm 3,2 km/h (1 Bft) O 90 10 min 8 UV-I 891 W/m 16,1 km/h (3 Bft)
20.07.2010 13:20 30,0 C 34 % 1014,4 hPa 0,0 mm 3,2 km/h (1 Bft) O-SO 112 10 min 8 UV-I 900 W/m 16,1 km/h (3 Bft)
20.07.2010 13:30 30,1 C 36 % 1014,3 hPa 0,0 mm 4,8 km/h (1 Bft) O-SO 112 10 min 8 UV-I 902 W/m 16,1 km/h (3 Bft)
20.07.2010 13:40 30,2 C 35 % 1014,2 hPa 0,0 mm 3,2 km/h (1 Bft) O-SO 112 10 min 8 UV-I 907 W/m 11,3 km/h (2 Bft)
20.07.2010 13:50 30,4 C 33 % 1014,1 hPa 0,0 mm 4,8 km/h (1 Bft) O 90 10 min 8 UV-I 912 W/m 11,3 km/h (2 Bft)
20.07.2010 14:00 30,1 C 35 % 1013,8 hPa 0,0 mm 4,8 km/h (1 Bft) O-SO 112 10 min 8 UV-I 905 W/m 16,1 km/h (3 Bft)
20.07.2010 14:10 30,3 C 34 % 1013,7 hPa 0,0 mm 4,8 km/h (1 Bft) O-SO 112 10 min 8 UV-I 905 W/m 17,7 km/h (3 Bft)
20.07.2010 14:20 31,3 C 35 % 1013,5 hPa 0,0 mm 4,8 km/h (1 Bft) O-SO 112 10 min 8 UV-I 898 W/m 16,1 km/h (3 Bft)
20.07.2010 14:30 31,3 C 34 % 1013,4 hPa 0,0 mm 4,8 km/h (1 Bft) O 90 10 min 8 UV-I 891 W/m 16,1 km/h (3 Bft)
20.07.2010 14:40 31,5 C 32 % 1013,3 hPa 0,0 mm 4,8 km/h (1 Bft) O 90 10 min 7 UV-I 884 W/m 17,7 km/h (3 Bft)
20.07.2010 14:50 30,9 C 33 % 1013,1 hPa 0,0 mm 3,2 km/h (1 Bft) SO 135 10 min 7 UV-I 881 W/m 11,3 km/h (2 Bft)
20.07.2010 15:00 31,8 C 31 % 1013,0 hPa 0,0 mm 4,8 km/h (1 Bft) O 90 10 min 7 UV-I 874 W/m 16,1 km/h (3 Bft)
20.07.2010 15:10 31,4 C 32 % 1013,0 hPa 0,0 mm 4,8 km/h (1 Bft) O 90 10 min 7 UV-I 867 W/m 11,3 km/h (2 Bft)
20.07.2010 15:20 31,9 C 31 % 1012,8 hPa 0,0 mm 4,8 km/h (1 Bft) O 90 10 min 7 UV-I 849 W/m 11,3 km/h (2 Bft)
20.07.2010 15:30 31,6 C 34 % 1012,8 hPa 0,0 mm 6,4 km/h (2 Bft) O-SO 112 10 min 6 UV-I 835 W/m 19,3 km/h (3 Bft)
20.07.2010 15:40 31,4 C 31 % 1012,7 hPa 0,0 mm 6,4 km/h (2 Bft) O-SO 112 10 min 6 UV-I 831 W/m 16,1 km/h (3 Bft)
20.07.2010 15:50 31,8 C 34 % 1012,5 hPa 0,0 mm 4,8 km/h (1 Bft) O 90 10 min 6 UV-I 814 W/m 17,7 km/h (3 Bft)
20.07.2010 16:00 31,6 C 32 % 1012,5 hPa 0,0 mm 4,8 km/h (1 Bft) S-SO 157 10 min 6 UV-I 800 W/m 16,1 km/h (3 Bft)
20.07.2010 16:10 31,6 C 31 % 1012,4 hPa 0,0 mm 4,8 km/h (1 Bft) O-SO 112 10 min 5 UV-I 791 W/m 12,9 km/h (3 Bft)
20.07.2010 16:20 31,4 C 29 % 1012,2 hPa 0,0 mm 4,8 km/h (1 Bft) O-SO 112 10 min 5 UV-I 763 W/m 14,5 km/h (3 Bft)
20.07.2010 16:30 31,8 C 30 % 1012,1 hPa 0,0 mm 4,8 km/h (1 Bft) O-SO 112 10 min 5 UV-I 756 W/m 11,3 km/h (2 Bft)
20.07.2010 16:40 31,9 C 32 % 1012,0 hPa 0,0 mm 4,8 km/h (1 Bft) SO 135 10 min 4 UV-I 726 W/m 14,5 km/h (3 Bft)
20.07.2010 16:50 31,9 C 33 % 1012,0 hPa 0,0 mm 4,8 km/h (1 Bft) O-SO 112 10 min 4 UV-I 671 W/m 12,9 km/h (3 Bft)
20.07.2010 17:00 31,8 C 33 % 1011,4 hPa 0,0 mm 4,8 km/h (1 Bft) O-SO 112 10 min 4 UV-I 645 W/m 17,7 km/h (3 Bft)
20.07.2010 17:10 31,5 C 31 % 1011,4 hPa 0,0 mm 6,4 km/h (2 Bft) O-SO 112 10 min 4 UV-I 664 W/m 17,7 km/h (3 Bft)
20.07.2010 17:20 31,7 C 31 % 1011,3 hPa 0,0 mm 4,8 km/h (1 Bft) O-SO 112 10 min 3 UV-I 631 W/m 14,5 km/h (3 Bft)
20.07.2010 17:30 32,2 C 32 % 1011,1 hPa 0,0 mm 4,8 km/h (1 Bft) O 90 10 min 3 UV-I 601 W/m 14,5 km/h (3 Bft)
20.07.2010 17:40 32,1 C 31 % 1011,0 hPa 0,0 mm 4,8 km/h (1 Bft) O-SO 112 10 min 3 UV-I 564 W/m 11,3 km/h (2 Bft)
20.07.2010 17:50 31,4 C 34 % 1011,0 hPa 0,0 mm 4,8 km/h (1 Bft) O 90 10 min 3 UV-I 547 W/m 16,1 km/h (3 Bft)
20.07.2010 18:00 31,7 C 33 % 1011,0 hPa 0,0 mm 4,8 km/h (1 Bft) O-SO 112 10 min 2 UV-I 515 W/m 19,3 km/h (3 Bft)
20.07.2010 18:10 31,2 C 34 % 1010,8 hPa 0,0 mm 3,2 km/h (1 Bft) O-SO 112 10 min 2 UV-I 482 W/m 11,3 km/h (2 Bft)
20.07.2010 18:20 31,3 C 33 % 1010,6 hPa 0,0 mm 4,8 km/h (1 Bft) O-SO 112 10 min 2 UV-I 461 W/m 11,3 km/h (2 Bft)
20.07.2010 18:30 31,4 C 33 % 1010,6 hPa 0,0 mm 4,8 km/h (1 Bft) O 90 10 min 2 UV-I 438 W/m 16,1 km/h (3 Bft)
20.07.2010 18:40 31,1 C 33 % 1010,4 hPa 0,0 mm 6,4 km/h (2 Bft) O-SO 112 10 min 2 UV-I 406 W/m 16,1 km/h (3 Bft)
20.07.2010 18:50 30,9 C 32 % 1010,3 hPa 0,0 mm 6,4 km/h (2 Bft) O 90 10 min 1 UV-I 383 W/m 19,3 km/h (3 Bft)
20.07.2010 19:00 30,4 C 33 % 1010,3 hPa 0,0 mm 3,2 km/h (1 Bft) SO 135 10 min 1 UV-I 346 W/m 11,3 km/h (2 Bft)
20.07.2010 19:10 30,2 C 34 % 1010,3 hPa 0,0 mm 3,2 km/h (1 Bft) O 90 10 min 1 UV-I 297 W/m 14,5 km/h (3 Bft)
20.07.2010 19:20 29,9 C 35 % 1010,2 hPa 0,0 mm 4,8 km/h (1 Bft) O-SO 112 10 min 1 UV-I 257 W/m 12,9 km/h (3 Bft)
20.07.2010 19:30 29,4 C 35 % 1010,3 hPa 0,0 mm 8,0 km/h (2 Bft) O-SO 112 10 min 1 UV-I 236 W/m 17,7 km/h (3 Bft)
20.07.2010 19:40 29,5 C 36 % 1010,2 hPa 0,0 mm 4,8 km/h (1 Bft) O-SO 112 10 min 1 UV-I 234 W/m 17,7 km/h (3 Bft)
20.07.2010 19:50 29,4 C 35 % 1010,1 hPa 0,0 mm 4,8 km/h (1 Bft) O-SO 112 10 min 1 UV-I 234 W/m 11,3 km/h (2 Bft)
20.07.2010 20:00 29,0 C 36 % 1010,1 hPa 0,0 mm 4,8 km/h (1 Bft) O 90 10 min 1 UV-I 193 W/m 12,9 km/h (3 Bft)
20.07.2010 20:10 28,4 C 37 % 1010,1 hPa 0,0 mm 3,2 km/h (1 Bft) O-SO 112 10 min 1 UV-I 163 W/m 9,7 km/h (2 Bft)
20.07.2010 20:20 27,8 C 38 % 1010,2 hPa 0,0 mm 4,8 km/h (1 Bft) O-SO 112 10 min 1 UV-I 137 W/m 16,1 km/h (3 Bft)
20.07.2010 20:30 27,2 C 38 % 1010,2 hPa 0,0 mm 4,8 km/h (1 Bft) O 90 0 min 0 UV-I 40 W/m 14,5 km/h (3 Bft)
20.07.2010 20:40 26,8 C 39 % 1010,2 hPa 0,0 mm 3,5 km/h (1 Bft) O-SO 107 0 min 0 UV-I 30 W/m 8,0 km/h (2 Bft)
20.07.2010 20:50 26,4 C 40 % 1010,1 hPa 0,0 mm 4,3 km/h (1 Bft) O-SO 113 0 min 0 UV-I 25 W/m 11,3 km/h (2 Bft)
20.07.2010 21:00 26,0 C 41 % 1010,2 hPa 0,0 mm 3,5 km/h (1 Bft) O-SO 121 0 min 0 UV-I 17 W/m 9,7 km/h (2 Bft)
20.07.2010 21:10 25,6 C 43 % 1010,1 hPa 0,0 mm 2,6 km/h (1 Bft) O-SO 114 0 min 0 UV-I 12 W/m 8,0 km/h (2 Bft)
20.07.2010 21:20 25,2 C 44 % 1010,1 hPa 0,0 mm 2,1 km/h (1 Bft) SO 136 0 min 0 UV-I 6 W/m 6,4 km/h (2 Bft)
20.07.2010 21:30 24,5 C 48 % 1010,0 hPa 0,0 mm 1,4 km/h (1 Bft) O-SO 103 0 min 0 UV-I 1 W/m 8,0 km/h (2 Bft)
20.07.2010 21:40 24,1 C 46 % 1010,0 hPa 0,0 mm 0,7 km/h (0 Bft) O 101 0 min 0 UV-I 0 W/m 4,8 km/h (1 Bft)
20.07.2010 21:50 23,7 C 47 % 1010,1 hPa 0,0 mm 0,5 km/h (0 Bft) O-SO 103 0 min 0 UV-I 0 W/m 3,2 km/h (1 Bft)
20.07.2010 22:00 23,4 C 47 % 1010,1 hPa 0,0 mm 0,6 km/h (0 Bft) O 101 0 min 0 UV-I 0 W/m 4,8 km/h (1 Bft)
20.07.2010 22:10 23,1 C 48 % 1010,0 hPa 0,0 mm 0,3 km/h (0 Bft) O 98 0 min 0 UV-I 0 W/m 4,8 km/h (1 Bft)
20.07.2010 22:20 22,8 C 49 % 1010,0 hPa 0,0 mm 0,3 km/h (0 Bft) O 98 0 min 0 UV-I 0 W/m 3,2 km/h (1 Bft)
20.07.2010 22:30 22,5 C 49 % 1010,0 hPa 0,0 mm 0,5 km/h (0 Bft) O-SO 102 0 min 0 UV-I 0 W/m 4,8 km/h (1 Bft)
20.07.2010 22:40 22,3 C 50 % 1009,9 hPa 0,0 mm 0,4 km/h (0 Bft) SO 134 0 min 0 UV-I 0 W/m 6,4 km/h (2 Bft)
20.07.2010 22:50 22,2 C 49 % 1009,8 hPa 0,0 mm 0,3 km/h (0 Bft) O-SO 121 0 min 0 UV-I 0 W/m 4,8 km/h (1 Bft)
20.07.2010 23:00 21,9 C 50 % 1009,7 hPa 0,0 mm 0,1 km/h (0 Bft) O-SO 121 0 min 0 UV-I 0 W/m 1,6 km/h (1 Bft)
20.07.2010 23:10 21,7 C 51 % 1009,6 hPa 0,0 mm 0,0 km/h (0 Bft) O-SO 112 0 min 0 UV-I 0 W/m 3,2 km/h (1 Bft)
20.07.2010 23:20 21,5 C 51 % 1009,7 hPa 0,0 mm 1,6 km/h (1 Bft) O-SO 112 0 min 0 UV-I 0 W/m 4,8 km/h (1 Bft)
20.07.2010 23:30 21,3 C 52 % 1009,5 hPa 0,0 mm 0,0 km/h (0 Bft) O-SO 112 0 min 0 UV-I 0 W/m 3,2 km/h (1 Bft)
20.07.2010 23:40 21,3 C 52 % 1009,7 hPa 0,0 mm 0,0 km/h (0 Bft) O-SO 112 0 min 0 UV-I 0 W/m 6,4 km/h (2 Bft)
20.07.2010 23:50 20,9 C 53 % 1009,6 hPa 0,0 mm 0,0 km/h (0 Bft) O-SO 112 0 min 0 UV-I 0 W/m 3,2 km/h (1 Bft)
_ Min-Zeit 06:10 16:20 23:30 - 00:00 - - - - - 00:20
Minimum _ 16,8 C 29 % 1009,5 hPa - 0,0 km/h (0 Bft) - - - - - 0,0 km/h (0 Bft)
_ Max-Zeit 16:20 06:10 00:00 00:00 19:30 - - 07:20 13:10 13:50 15:30
Maximum _ 32,4 C 64 % 1018,7 hPa 0,0 mm 8,0 km/h
O-SO (2 Bft)
- - 10 min 8 UV-I 912 W/m 19,3 km/h
SO (3 Bft)
Durchschnitt _ 24,4 C 47 % 1014,5 hPa #0,0 mm 2,9 km/h (1 Bft) O-SO - #13:10 h 4 UV-I 509 W/m 9,7 km/h (2 Bft)